Погода в Благовещенке

Россия / Кабардино-Балкарская Республика     43°41′25″N   43°46′24″E
темп.,
°C
ветер,
м/с
пор.,
м/с
влажн.,
%
обл.,
%
осадки,
мм/ч
давл.,
гПа
погр.,
м
7 мая, пт
пт700:00+8с227485 0.0 101518
03:00+7ссв1176100 0.0 101510
06:00+8ссз1174100 0.0 101656
09:00+15ссв225871 0.0 1016425
12:00+20с34455 0.0 10161103
15:00+21ссв334164 0.0 10161481
18:00+19всв225738 0.0 101751
21:00+14ю116950 0.0 101911
8 мая, сб
сб800:00+12з11765 0.0 101910
03:00+11ю11825 0.0 101810
06:00+12ю227848 0.0 101849
09:00+18вюв45575 0.0 1016611
12:00+22в5647100 0.0 10141405
15:00+23в5546100 0.0 10131547
18:00+19в376126 0.0 1013180
21:00+14юв226875 0.0 101325
9 мая, вс
вс900:00+11с118150 0.0 101111
03:00+11ссз1186100 0.0 101010
06:00+13ююв1179100 0.0 100918
09:00+18с356140 0.0 1009614
12:00+22ссз564994 0.0 10091325
15:00+11сз132066100 0.0 1013791
18:00+7сз111984100 2.9 1018967
21:00+7сз91686100 5.1 10211098
10 мая, пн
пн1000:00+8зсз81473100 0.4 10221000
03:00+8зсз61270100 0.4 1023721
06:00+8зсз5126791 0.0 1022796
09:00+13сз7104425 0.0 10212168
12:00+15з463898 0.2 10192348
15:00+14ссз5447100 0.4 10181406
18:00+10зсз6974100 0.6 1020902
21:00+8с1587100 2.8 1022969
11 мая, вт
вт1100:00+7ю3389100 0.9 1020160
03:00+6ю3693100 0.9 1020255
06:00+6ююв379211 0.0 1019278
09:00+10юв4568100 0.0 1018908
12:00+13вюв4557100 0.0 10161313
15:00+15всв4453100 0.1 10151520
18:00+13св3467100 0.2 1017218
21:00+9с348689 0.2 101866